Regional Weather Roundup
Issued by NWS

Home | Current Version | Previous Version | Graphics & Text | Print | Product List | Glossary On
Versions: 1 2 3 4 5 6 7 8 9 10 11 12 13 14 15 16 17 18 19 20 21 22 23 24 25 26 27 28 29 30 31 32 33 34 35 36 37 38 39 40 41 42 43 44 45 46 47 48 49 50
000
ASUS43 KLMK 010310
RWRKY
KENTUCKY REGIONAL WEATHER ROUNDUP
NATIONAL WEATHER SERVICE LOUISVILLE KY
1000 PM EST SAT FEB 28 2015

NOTE "FAIR" INDICATES FEW OR NO CLOUDS BELOW 12,000 FEET
WITH NO SIGNIFICANT WEATHER AND/OR OBSTRUCTIONS TO VISIBILITY.

KYZ001>023-026-027-061>063-070>075-010400-
WESTERN AND SOUTH CENTRAL KENTUCKY

CITY           SKY/WX    TMP DP  RH WIND       PRES   REMARKS
PADUCAH        CLOUDY    33  20  58 NE12      30.45S WCI  24
HENDERSON      CLOUDY    34  19  55 N7        30.48F WCI  28
OWENSBORO      CLOUDY    35  21  57 NE5       30.47F WCI  31
HOPKINSVILLE   CLOUDY    35  25  66 N6        30.44R WCI  30
BOWLING GREEN  CLOUDY    36  23  59 E6        30.42F WCI  31
GLASGOW        CLOUDY    34  25  69 E8        30.42F WCI  27
$$

KYZ024-025-028>034-038-045-046-053-010400-
NORTH CENTRAL KENTUCKY

CITY           SKY/WX    TMP DP  RH WIND       PRES   REMARKS
LOUISVILLE/SDF CLOUDY    34  18  52 NE8       30.48F WCI  27
LOUISVILLE/LOU CLOUDY    33  17  51 E6        30.49F WCI  28
FORT KNOX      MIX PCPN  32  19  59 NE7       30.44S WCI  26
$$

KYZ035>037-039>044-047>052-055>060-089>105-010400-
NORTHEAST KENTUCKY

CITY           SKY/WX    TMP DP  RH WIND       PRES   REMARKS
LEXINGTON      CLOUDY    34  20  56 E5        30.47R WCI  30
COVINGTON      CLOUDY    27  13  55 NE5       30.50R WCI  22
FRANKFORT        N/A     32  17  54 N5        30.48R WCI  27
$$

KYZ054-064>069-076>088-106>120-010400-
SOUTHEAST KENTUCKY

CITY           SKY/WX    TMP DP  RH WIND       PRES   REMARKS
JACKSON        MOCLDY    36  17  46 E6        30.45F WCI  31
LONDON         MOCLDY    39  18  42 CALM      30.45F
SOMERSET       CLOUDY    37  21  52 CALM      30.46S
MIDDLESBORO    CLOUDY    32  29  88 CALM      30.47F
MONTICELLO     PTCLDY    34  27  76 CALM      30.47S
$$



USA.gov is the U.S. government's official web portal to all federal, state and local government web resources and services.